KGTF

Great Falls International

Airport
ICAO code
KGTF
Summary
ICAO Region
NAM
ICAO Territory
Location

Great Falls, Cascade County, Montana,

Elevation
3680 ft
Coordinates
47° 28' 40" N , 111° 21' 33" W
KCC
Airport CFIT
Altimeter Temperature Error Correction
Airport RE
Hot and High Operations
Airport WX
Mountain Waves
Metar
Observation
KGTF 090153Z 36003KT 10SM OVC065 M02/M06 A3033 RMK AO2 SLP318 T10171056 $
Station
Great Falls, Great Falls International Airport
Date/Time
2023-02-09 01:53:00
Wind direction
360°
Wind speed
03 kts
Lowest cloud amount
overcast
Temperature
-1.7°C
Dew point
-5.6°C
Humidity
74%
Weather condition
n/a

Description

Great Falls International Airport is a joint civil-military public airport located within city limits, 5 km southwest of central Great Falls in Cascade County, Montana, USA. GTF serves the Great Falls area, as well as other communities throughout central Montana.

Climatology

Semi-arid climate (Köppen climate classification BSk) - Little summer precipitation, hot summers and cold winters, sometimes with large changes in temperature in a 24 hour period.

Airport map

Aerial View

SKYbrary Partners:

Safety knowledge contributed by: